Location: Springfield
(37.2150°N, 93.2980°W)
Time: 09:48:01
(UTC-05:00)

Genesis I - Pass Details

Date: 19 April 2018
Orbit: 481 x 545 km, 64.5° (Epoch: 19 September)

Event Time Altitude Azimuth Distance (km) Brightness Sun altitude
Rises 21:27:54 0° 336° (NNW) 2,704 7.8 -18.4°
Reaches altitude 10° 21:30:13 10° 344° (NNW) 1,813 6.6 -18.8°
Maximum altitude 21:34:04 39° 55° (NE) 822 4.0 -19.4°
Enters shadow 21:34:27 38° 70° (ENE) 837 3.9 -19.5°
